Time,TemperatureF,DewpointF,PressureIn,WindDirection,WindDirectionDegrees,WindSpeedMPH,WindSpeedGustMPH,Humidity,HourlyPrecipIn,Conditions,Clouds,dailyrainin,SolarRadiationWatts/m^2,SoftwareType,DateUTC
2013-02-19 00:01:00,33.4,25.3,30.19,NE,49,0.0,6.0,69,0.00,,,0.01,0.0,meteohub,2013-02-19 05:01:00,
2013-02-19 00:02:00,33.4,25.3,30.19,NE,49,1.0,6.0,69,0.00,,,0.01,0.0,meteohub,2013-02-19 05:02:00,
2013-02-19 00:07:00,33.8,25.3,30.19,South,189,1.0,5.0,68,0.00,,,0.00,0.0,meteohub,2013-02-19 05:07:00,
2013-02-19 00:10:00,33.6,25.5,30.18,South,189,0.0,5.0,69,0.00,,,0.00,0.0,meteohub,2013-02-19 05:10:00,
2013-02-19 00:16:00,33.4,25.0,30.18,South,190,2.0,5.0,68,0.00,,,0.00,0.0,meteohub,2013-02-19 05:16:00,
2013-02-19 00:22:00,33.3,25.2,30.18,South,190,0.0,3.0,69,0.00,,,0.00,0.0,meteohub,2013-02-19 05:22:00,
2013-02-19 00:27:00,33.6,25.2,30.18,SSE,148,1.0,3.0,68,0.00,,,0.00,0.0,meteohub,2013-02-19 05:27:00,
2013-02-19 00:32:00,33.8,25.7,30.18,West,276,0.0,4.0,69,0.00,,,0.00,0.0,meteohub,2013-02-19 05:32:00,
2013-02-19 00:37:00,33.8,25.3,30.17,SSW,196,1.0,5.0,68,0.00,,,0.00,0.0,meteohub,2013-02-19 05:37:00,
2013-02-19 00:44:00,33.4,25.0,30.18,SSW,196,0.0,5.0,68,0.00,,,0.00,0.0,meteohub,2013-02-19 05:44:00,
2013-02-19 00:50:00,33.6,24.8,30.18,SSE,161,2.0,5.0,67,0.00,,,0.00,0.0,meteohub,2013-02-19 05:50:00,
2013-02-19 00:56:00,34.7,24.4,30.18,SSW,194,7.0,7.0,63,0.00,,,0.00,0.0,meteohub,2013-02-19 05:56:00,
2013-02-19 01:02:00,36.3,25.0,30.18,South,182,1.0,10.0,60,0.00,,,0.00,0.0,meteohub,2013-02-19 06:02:00,
2013-02-19 01:07:00,36.7,24.8,30.17,WSW,254,1.0,10.0,59,0.00,,,0.00,0.0,meteohub,2013-02-19 06:07:00,
2013-02-19 01:12:00,36.9,25.0,30.18,West,272,0.0,10.0,59,0.00,,,0.00,0.0,meteohub,2013-02-19 06:12:00,
2013-02-19 01:17:00,36.7,24.8,30.18,SSE,150,2.0,5.0,59,0.00,,,0.00,0.0,meteohub,2013-02-19 06:17:00,
2013-02-19 01:23:00,36.3,25.0,30.18,South,185,0.0,5.0,60,0.00,,,0.00,0.0,meteohub,2013-02-19 06:23:00,
2013-02-19 01:29:00,36.3,25.0,30.18,South,169,2.0,5.0,60,0.00,,,0.00,0.0,meteohub,2013-02-19 06:29:00,
2013-02-19 01:35:00,36.1,25.2,30.17,South,169,0.0,4.0,61,0.00,,,0.00,0.0,meteohub,2013-02-19 06:35:00,
2013-02-19 01:41:00,35.8,24.4,30.17,East,92,3.0,4.0,60,0.00,,,0.00,0.0,meteohub,2013-02-19 06:41:00,
2013-02-19 01:47:00,35.8,24.4,30.17,SW,226,1.0,4.0,60,0.00,,,0.00,0.0,meteohub,2013-02-19 06:47:00,
2013-02-19 01:52:00,36.3,24.6,30.17,South,188,2.0,5.0,59,0.00,,,0.00,0.0,meteohub,2013-02-19 06:52:00,
2013-02-19 01:57:00,36.7,24.4,30.17,SSW,200,4.0,5.0,58,0.00,,,0.00,0.0,meteohub,2013-02-19 06:57:00,
2013-02-19 02:02:00,36.9,24.3,30.17,South,180,1.0,6.0,57,0.00,,,0.00,0.0,meteohub,2013-02-19 07:02:00,
2013-02-19 02:07:00,37.2,24.6,30.16,NW,319,0.0,6.0,57,0.00,,,0.00,0.0,meteohub,2013-02-19 07:07:00,
2013-02-19 02:12:00,37.2,24.6,30.16,WNW,289,2.0,6.0,57,0.00,,,0.00,0.0,meteohub,2013-02-19 07:12:00,
2013-02-19 02:17:00,37.4,24.8,30.15,West,263,1.0,7.0,57,0.00,,,0.00,0.0,meteohub,2013-02-19 07:17:00,
2013-02-19 02:22:00,37.4,24.8,30.15,WNW,299,1.0,7.0,57,0.00,,,0.00,0.0,meteohub,2013-02-19 07:22:00,
2013-02-19 02:27:00,37.6,24.6,30.15,NW,304,3.0,7.0,56,0.00,,,0.00,0.0,meteohub,2013-02-19 07:27:00,
2013-02-19 02:32:00,37.6,24.6,30.14,NW,304,0.0,6.0,56,0.00,,,0.00,0.0,meteohub,2013-02-19 07:32:00,
2013-02-19 02:37:00,37.6,24.6,30.14,NW,304,0.0,5.0,56,0.00,,,0.00,0.0,meteohub,2013-02-19 07:37:00,
2013-02-19 02:42:00,37.4,24.8,30.14,SSW,206,1.0,5.0,57,0.00,,,0.00,0.0,meteohub,2013-02-19 07:42:00,
2013-02-19 02:48:00,37.2,24.6,30.14,South,173,0.0,4.0,57,0.00,,,0.00,0.0,meteohub,2013-02-19 07:48:00,
2013-02-19 02:54:00,36.9,24.3,30.14,South,176,1.0,4.0,57,0.00,,,0.00,0.0,meteohub,2013-02-19 07:54:00,
2013-02-19 03:00:00,36.9,24.3,30.13,South,177,0.0,4.0,57,0.00,,,0.00,0.0,meteohub,2013-02-19 08:00:00,
2013-02-19 03:07:00,36.7,24.4,30.13,NW,321,2.0,4.0,58,0.00,,,0.00,0.0,meteohub,2013-02-19 08:07:00,
2013-02-19 03:13:00,36.5,24.3,30.13,NW,321,0.0,4.0,58,0.00,,,0.00,0.0,meteohub,2013-02-19 08:13:00,
2013-02-19 03:19:00,36.5,24.3,30.13,East,99,2.0,4.0,58,0.00,,,0.00,0.0,meteohub,2013-02-19 08:19:00,
2013-02-19 03:25:00,36.3,24.6,30.12,East,86,3.0,4.0,59,0.00,,,0.00,0.0,meteohub,2013-02-19 08:25:00,
2013-02-19 03:31:00,36.3,24.6,30.11,NE,55,2.0,5.0,59,0.00,,,0.00,0.0,meteohub,2013-02-19 08:31:00,
2013-02-19 03:37:00,36.3,24.6,30.10,NE,49,4.0,5.0,59,0.00,,,0.00,0.0,meteohub,2013-02-19 08:37:00,
2013-02-19 03:42:00,36.5,25.2,30.10,SE,137,1.0,5.0,60,0.00,,,0.00,0.0,meteohub,2013-02-19 08:42:00,
2013-02-19 03:47:00,36.3,24.6,30.10,SE,137,3.0,6.0,59,0.00,,,0.00,0.0,meteohub,2013-02-19 08:47:00,
2013-02-19 03:52:00,36.5,24.6,30.09,East,93,0.0,6.0,59,0.00,,,0.00,0.0,meteohub,2013-02-19 08:52:00,
2013-02-19 03:57:00,36.7,24.8,30.09,North,11,1.0,6.0,59,0.00,,,0.00,0.0,meteohub,2013-02-19 08:57:00,
2013-02-19 04:02:00,36.7,25.3,30.09,East,98,0.0,4.0,60,0.00,,,0.00,0.0,meteohub,2013-02-19 09:02:00,
2013-02-19 04:07:00,36.7,24.8,30.09,ESE,105,0.0,4.0,59,0.00,,,0.00,0.0,meteohub,2013-02-19 09:07:00,
2013-02-19 04:12:00,36.3,25.0,30.09,ESE,105,0.0,4.0,60,0.00,,,0.00,0.0,meteohub,2013-02-19 09:12:00,
2013-02-19 04:17:00,36.1,25.5,30.09,ENE,63,4.0,4.0,62,0.00,,,0.00,0.0,meteohub,2013-02-19 09:17:00,
2013-02-19 04:22:00,35.8,25.5,30.08,NE,34,0.0,4.0,63,0.00,,,0.00,0.0,meteohub,2013-02-19 09:22:00,
2013-02-19 04:27:00,35.2,25.0,30.08,NE,34,0.0,4.0,63,0.00,,,0.00,0.0,meteohub,2013-02-19 09:27:00,
2013-02-19 04:32:00,34.7,25.2,30.08,NE,34,0.0,4.0,65,0.00,,,0.00,0.0,meteohub,2013-02-19 09:32:00,
2013-02-19 04:37:00,34.0,24.8,30.09,NE,34,0.0,2.0,66,0.00,,,0.00,0.0,meteohub,2013-02-19 09:37:00,
2013-02-19 04:42:00,33.6,24.8,30.09,South,190,1.0,2.0,67,0.00,,,0.00,0.0,meteohub,2013-02-19 09:42:00,
2013-02-19 04:47:00,33.3,25.2,30.08,ESE,111,2.0,2.0,69,0.00,,,0.00,0.0,meteohub,2013-02-19 09:47:00,
2013-02-19 04:52:00,32.7,25.0,30.08,ESE,111,0.0,2.0,70,0.00,,,0.00,0.0,meteohub,2013-02-19 09:52:00,
2013-02-19 04:59:00,32.2,24.8,30.09,ESE,111,3.0,3.0,71,0.00,,,0.00,0.0,meteohub,2013-02-19 09:59:00,
2013-02-19 05:05:00,31.8,25.2,30.08,ESE,111,2.0,3.0,73,0.00,,,0.00,0.0,meteohub,2013-02-19 10:05:00,
2013-02-19 05:11:00,31.6,25.0,30.07,ESE,111,0.0,4.0,73,0.00,,,0.00,0.0,meteohub,2013-02-19 10:11:00,
2013-02-19 05:17:00,31.5,24.8,30.08,ESE,111,1.0,3.0,73,0.00,,,0.00,0.0,meteohub,2013-02-19 10:17:00,
2013-02-19 05:22:00,31.8,24.8,30.08,ESE,109,1.0,3.0,72,0.00,,,0.00,0.0,meteohub,2013-02-19 10:22:00,
2013-02-19 05:29:00,31.8,25.2,30.08,ESE,109,0.0,2.0,73,0.00,,,0.00,0.0,meteohub,2013-02-19 10:29:00,
2013-02-19 05:35:00,31.5,25.2,30.08,ESE,121,0.0,4.0,74,0.00,,,0.00,0.0,meteohub,2013-02-19 10:35:00,
2013-02-19 05:41:00,31.6,25.0,30.07,ENE,77,0.0,7.0,73,0.00,,,0.00,0.0,meteohub,2013-02-19 10:41:00,
2013-02-19 05:47:00,31.8,25.3,30.07,ENE,69,5.0,7.0,74,0.00,,,0.00,0.0,meteohub,2013-02-19 10:47:00,
2013-02-19 05:52:00,32.2,25.2,30.07,ESE,105,0.0,7.0,72,0.00,,,0.00,0.0,meteohub,2013-02-19 10:52:00,
2013-02-19 05:57:00,33.4,25.7,30.07,East,98,1.0,6.0,70,0.00,,,0.00,0.0,meteohub,2013-02-19 10:57:00,
2013-02-19 06:02:00,34.7,25.9,30.07,SE,136,3.0,6.0,67,0.00,,,0.00,0.0,meteohub,2013-02-19 11:02:00,
2013-02-19 06:07:00,35.4,25.9,30.07,SE,141,9.0,10.0,65,0.00,,,0.00,0.0,meteohub,2013-02-19 11:07:00,
2013-02-19 06:12:00,36.0,26.1,30.06,ESE,117,9.0,10.0,64,0.00,,,0.00,0.0,meteohub,2013-02-19 11:12:00,
2013-02-19 06:17:00,36.3,26.1,30.06,SSE,161,2.0,10.0,63,0.00,,,0.00,0.0,meteohub,2013-02-19 11:17:00,
2013-02-19 06:22:00,36.3,26.1,30.05,East,81,4.0,12.0,63,0.00,,,0.00,0.0,meteohub,2013-02-19 11:22:00,
2013-02-19 06:27:00,36.5,26.2,30.05,SSE,151,3.0,12.0,63,0.00,,,0.00,0.0,meteohub,2013-02-19 11:27:00,
2013-02-19 06:32:00,36.5,25.9,30.04,SE,143,2.0,12.0,62,0.00,,,0.00,0.0,meteohub,2013-02-19 11:32:00,
2013-02-19 06:37:00,36.7,26.1,30.04,SE,144,3.0,9.0,62,0.00,,,0.00,0.0,meteohub,2013-02-19 11:37:00,
2013-02-19 06:42:00,36.7,26.1,30.04,ENE,74,4.0,11.0,62,0.00,,,0.00,0.0,meteohub,2013-02-19 11:42:00,
2013-02-19 06:47:00,36.9,26.2,30.04,WNW,289,4.0,12.0,62,0.00,,,0.00,0.0,meteohub,2013-02-19 11:47:00,
2013-02-19 06:52:00,36.9,26.2,30.04,ESE,109,5.0,12.0,62,0.00,,,0.00,0.0,meteohub,2013-02-19 11:52:00,
2013-02-19 06:57:00,36.7,26.1,30.04,SSE,162,6.0,12.0,62,0.00,,,0.00,0.0,meteohub,2013-02-19 11:57:00,
2013-02-19 07:02:00,36.7,26.1,30.04,ESE,110,2.0,12.0,62,0.00,,,0.00,0.0,meteohub,2013-02-19 12:02:00,
2013-02-19 07:07:00,36.7,26.1,30.04,East,98,3.0,11.0,62,0.00,,,0.00,0.0,meteohub,2013-02-19 12:07:00,
2013-02-19 07:12:00,36.9,26.2,30.04,ENE,65,1.0,10.0,62,0.00,,,0.00,0.0,meteohub,2013-02-19 12:12:00,
2013-02-19 07:19:00,37.2,26.6,30.04,South,181,3.0,10.0,62,0.00,,,0.00,5.0,meteohub,2013-02-19 12:19:00,
2013-02-19 07:25:00,37.4,26.2,30.04,South,169,0.0,12.0,61,0.00,,,0.00,9.0,meteohub,2013-02-19 12:25:00,
2013-02-19 07:31:00,37.6,26.4,30.06,South,189,3.0,12.0,61,0.00,,,0.00,0.0,meteohub,2013-02-19 12:31:00,
2013-02-19 07:37:00,37.8,26.6,30.05,South,172,1.0,12.0,61,0.00,,,0.00,5.0,meteohub,2013-02-19 12:37:00,
2013-02-19 07:42:00,38.1,27.0,30.05,ESE,117,2.0,14.0,61,0.00,,,0.00,9.0,meteohub,2013-02-19 12:42:00,
2013-02-19 07:47:00,38.1,27.0,30.04,SE,142,6.0,14.0,61,0.00,,,0.00,7.0,meteohub,2013-02-19 12:47:00,
2013-02-19 07:52:00,37.9,26.8,30.02,SSE,148,6.0,14.0,61,0.00,,,0.00,18.0,meteohub,2013-02-19 12:52:00,
2013-02-19 07:57:00,37.9,26.4,30.02,SSW,200,6.0,12.0,60,0.00,,,0.00,12.0,meteohub,2013-02-19 12:57:00,
2013-02-19 08:02:00,37.9,26.8,30.03,SSE,163,4.0,12.0,61,0.00,,,0.00,11.0,meteohub,2013-02-19 13:02:00,
2013-02-19 08:07:00,38.1,27.0,30.03,SSE,166,0.0,12.0,61,0.00,,,0.00,25.0,meteohub,2013-02-19 13:07:00,
2013-02-19 08:12:00,38.1,27.0,30.03,NW,312,2.0,10.0,61,0.00,,,0.00,35.0,meteohub,2013-02-19 13:12:00,
2013-02-19 08:17:00,38.3,26.8,30.04,SW,229,3.0,9.0,60,0.00,,,0.00,47.0,meteohub,2013-02-19 13:17:00,
2013-02-19 08:22:00,38.5,27.3,30.04,South,173,3.0,12.0,61,0.00,,,0.00,23.0,meteohub,2013-02-19 13:22:00,
2013-02-19 08:27:00,38.7,29.3,30.04,WSW,241,3.0,21.0,66,0.00,,,0.00,42.0,meteohub,2013-02-19 13:27:00,
2013-02-19 08:32:00,38.1,30.2,30.04,ESE,121,5.0,21.0,70,0.00,,,0.00,63.0,meteohub,2013-02-19 13:32:00,
2013-02-19 08:37:00,37.4,30.6,30.03,SSE,165,6.0,21.0,73,0.01,,,0.01,54.0,meteohub,2013-02-19 13:37:00,
2013-02-19 08:42:00,37.0,30.7,30.04,South,181,2.0,19.0,75,0.01,,,0.01,49.0,meteohub,2013-02-19 13:42:00,
2013-02-19 08:47:00,36.7,31.1,30.04,SE,141,3.0,14.0,77,0.02,,,0.02,39.0,meteohub,2013-02-19 13:47:00,
2013-02-19 08:52:00,36.5,31.3,30.03,SSE,162,2.0,11.0,78,0.03,,,0.03,42.0,meteohub,2013-02-19 13:52:00,
2013-02-19 08:57:00,36.3,31.6,30.03,SE,136,4.0,11.0,80,0.03,,,0.03,28.0,meteohub,2013-02-19 13:57:00,
2013-02-19 09:02:00,36.0,31.6,30.03,ENE,61,2.0,12.0,81,0.03,,,0.03,25.0,meteohub,2013-02-19 14:02:00,
2013-02-19 09:08:00,35.8,31.6,30.03,South,186,5.0,12.0,82,0.04,,,0.04,23.0,meteohub,2013-02-19 14:08:00,
2013-02-19 09:14:00,35.4,31.3,30.02,SW,221,9.0,12.0,82,0.05,,,0.05,47.0,meteohub,2013-02-19 14:14:00,
2013-02-19 09:20:00,35.1,31.6,30.02,ESE,117,3.0,11.0,84,0.06,,,0.09,33.0,meteohub,2013-02-19 14:20:00,
2013-02-19 09:26:00,35.1,31.6,30.01,ESE,109,3.0,12.0,84,0.11,,,0.10,18.0,meteohub,2013-02-19 14:26:00,
2013-02-19 09:32:00,35.1,31.8,30.01,SE,136,1.0,11.0,85,0.12,,,0.12,25.0,meteohub,2013-02-19 14:32:00,
2013-02-19 09:37:00,35.1,31.8,30.00,SE,135,1.0,11.0,85,0.12,,,0.13,35.0,meteohub,2013-02-19 14:37:00,
2013-02-19 09:42:00,35.1,31.8,29.99,South,182,1.0,11.0,85,0.14,,,0.14,54.0,meteohub,2013-02-19 14:42:00,
2013-02-19 09:47:00,35.1,31.8,29.99,ESE,123,3.0,10.0,85,0.13,,,0.15,95.0,meteohub,2013-02-19 14:47:00,
2013-02-19 09:52:00,35.4,32.2,29.99,ESE,121,3.0,9.0,85,0.12,,,0.15,77.0,meteohub,2013-02-19 14:52:00,
2013-02-19 09:57:00,35.4,32.2,29.99,SSW,209,2.0,9.0,85,0.12,,,0.15,42.0,meteohub,2013-02-19 14:57:00,
2013-02-19 10:02:00,35.4,32.2,29.99,ESE,113,2.0,9.0,85,0.11,,,0.15,39.0,meteohub,2013-02-19 15:02:00,
2013-02-19 10:07:00,35.6,32.7,29.99,SSE,163,5.0,9.0,86,0.11,,,0.16,72.0,meteohub,2013-02-19 15:07:00,
2013-02-19 10:12:00,35.6,32.7,29.99,NE,46,1.0,9.0,86,0.11,,,0.16,111.0,meteohub,2013-02-19 15:12:00,
2013-02-19 10:17:00,35.6,32.7,29.99,SW,235,3.0,10.0,86,0.10,,,0.17,151.0,meteohub,2013-02-19 15:17:00,
2013-02-19 10:22:00,35.8,32.9,29.99,SSE,166,9.0,10.0,86,0.09,,,0.18,153.0,meteohub,2013-02-19 15:22:00,
2013-02-19 10:27:00,36.0,33.1,29.99,NW,309,2.0,12.0,86,0.07,,,0.18,123.0,meteohub,2013-02-19 15:27:00,
2013-02-19 10:32:00,36.0,33.1,29.98,WNW,286,1.0,12.0,86,0.06,,,0.18,128.0,meteohub,2013-02-19 15:32:00,
2013-02-19 10:37:00,36.0,33.1,29.98,SW,214,4.0,12.0,86,0.05,,,0.18,128.0,meteohub,2013-02-19 15:37:00,
2013-02-19 10:42:00,36.0,33.1,29.98,SSW,201,3.0,10.0,86,0.03,,,0.18,137.0,meteohub,2013-02-19 15:42:00,
2013-02-19 10:47:00,36.0,33.1,29.97,SE,134,1.0,13.0,86,0.03,,,0.18,155.0,meteohub,2013-02-19 15:47:00,
2013-02-19 10:52:00,36.1,33.3,29.97,SSW,197,0.0,13.0,86,0.03,,,0.18,218.0,meteohub,2013-02-19 15:52:00,
2013-02-19 10:57:00,36.3,33.4,29.97,South,169,4.0,13.0,86,0.03,,,0.18,204.0,meteohub,2013-02-19 15:57:00,
2013-02-19 11:02:00,36.5,33.6,29.97,South,188,5.0,11.0,86,0.03,,,0.18,153.0,meteohub,2013-02-19 16:02:00,
2013-02-19 11:07:00,36.5,33.6,29.97,WSW,252,7.0,11.0,86,0.02,,,0.18,120.0,meteohub,2013-02-19 16:07:00,
2013-02-19 11:12:00,36.5,33.3,29.97,SE,126,0.0,11.0,85,0.01,,,0.18,121.0,meteohub,2013-02-19 16:12:00,
2013-02-19 11:17:00,36.7,33.4,29.96,SE,144,1.0,14.0,85,0.01,,,0.18,130.0,meteohub,2013-02-19 16:17:00,
2013-02-19 11:22:00,36.7,33.8,29.96,SE,134,2.0,14.0,86,0.00,,,0.18,206.0,meteohub,2013-02-19 16:22:00,
2013-02-19 11:27:00,36.7,33.8,29.96,South,188,3.0,11.0,86,0.00,,,0.18,163.0,meteohub,2013-02-19 16:27:00,
2013-02-19 11:32:00,36.7,33.8,29.96,ESE,111,2.0,11.0,86,0.00,,,0.18,104.0,meteohub,2013-02-19 16:32:00,
2013-02-19 11:37:00,36.7,33.8,29.96,SSW,197,4.0,10.0,86,0.00,,,0.18,130.0,meteohub,2013-02-19 16:37:00,
2013-02-19 11:42:00,36.7,33.8,29.96,SW,219,1.0,10.0,86,0.00,,,0.18,134.0,meteohub,2013-02-19 16:42:00,
2013-02-19 11:47:00,36.7,33.8,29.95,SSW,198,6.0,7.0,86,0.00,,,0.18,84.0,meteohub,2013-02-19 16:47:00,
2013-02-19 11:52:00,36.7,33.8,29.95,South,173,3.0,7.0,86,0.00,,,0.18,81.0,meteohub,2013-02-19 16:52:00,
2013-02-19 11:57:00,36.9,34.0,29.94,South,174,0.0,7.0,86,0.00,,,0.18,111.0,meteohub,2013-02-19 16:57:00,
2013-02-19 12:02:00,36.9,34.0,29.94,South,180,0.0,7.0,86,0.00,,,0.18,88.0,meteohub,2013-02-19 17:02:00,
2013-02-19 12:07:00,36.9,34.0,29.93,SSE,157,4.0,7.0,86,0.00,,,0.18,70.0,meteohub,2013-02-19 17:07:00,
2013-02-19 12:12:00,36.9,34.0,29.93,South,170,0.0,7.0,86,0.00,,,0.18,70.0,meteohub,2013-02-19 17:12:00,
2013-02-19 12:17:00,36.9,34.0,29.92,SSE,147,3.0,6.0,86,0.00,,,0.18,81.0,meteohub,2013-02-19 17:17:00,
2013-02-19 12:22:00,36.7,34.0,29.92,SW,218,2.0,9.0,87,0.01,,,0.19,76.0,meteohub,2013-02-19 17:22:00,
2013-02-19 12:27:00,36.9,34.2,29.91,SE,128,4.0,9.0,87,0.01,,,0.19,76.0,meteohub,2013-02-19 17:27:00,
2013-02-19 12:32:00,36.9,34.2,29.91,ESE,119,3.0,9.0,87,0.01,,,0.19,86.0,meteohub,2013-02-19 17:32:00,
2013-02-19 12:37:00,36.9,34.2,29.91,SE,143,4.0,7.0,87,0.01,,,0.19,104.0,meteohub,2013-02-19 17:37:00,
2013-02-19 12:42:00,36.9,34.2,29.90,SE,146,2.0,7.0,87,0.01,,,0.19,144.0,meteohub,2013-02-19 17:42:00,
2013-02-19 12:47:00,37.0,34.3,29.89,South,190,5.0,7.0,87,0.01,,,0.19,165.0,meteohub,2013-02-19 17:47:00,
2013-02-19 12:52:00,37.2,34.5,29.88,SSE,153,3.0,7.0,87,0.01,,,0.19,181.0,meteohub,2013-02-19 17:52:00,
2013-02-19 12:57:00,37.4,35.1,29.88,ESE,111,3.0,12.0,88,0.01,,,0.19,163.0,meteohub,2013-02-19 17:57:00,
2013-02-19 13:02:00,37.8,35.4,29.88,SSW,211,0.0,12.0,88,0.01,,,0.19,239.0,meteohub,2013-02-19 18:02:00,
2013-02-19 13:07:00,38.1,35.8,29.87,NE,51,3.0,8.0,88,0.01,,,0.19,271.0,meteohub,2013-02-19 18:07:00,
2013-02-19 13:12:00,38.5,36.1,29.87,SW,223,2.0,11.0,88,0.01,,,0.19,410.0,meteohub,2013-02-19 18:12:00,
2013-02-19 13:17:00,38.8,36.5,29.87,SSW,192,9.0,11.0,88,0.00,,,0.19,297.0,meteohub,2013-02-19 18:17:00,
2013-02-19 13:22:00,39.0,36.7,29.86,WSW,240,5.0,11.0,88,0.00,,,0.19,448.0,meteohub,2013-02-19 18:22:00,
2013-02-19 13:27:00,39.4,36.7,29.86,SW,233,8.0,11.0,87,0.00,,,0.19,355.0,meteohub,2013-02-19 18:27:00,
2013-02-19 13:32:00,39.6,36.9,29.85,SSE,154,1.0,12.0,87,0.00,,,0.19,292.0,meteohub,2013-02-19 18:32:00,
2013-02-19 13:37:00,39.9,37.2,29.85,SSE,162,3.0,12.0,87,0.00,,,0.19,272.0,meteohub,2013-02-19 18:37:00,
2013-02-19 13:44:00,40.1,37.4,29.84,SE,128,2.0,12.0,87,0.00,,,0.19,288.0,meteohub,2013-02-19 18:44:00,
2013-02-19 13:50:00,40.3,37.2,29.83,ESE,113,4.0,10.0,86,0.00,,,0.19,492.0,meteohub,2013-02-19 18:50:00,
2013-02-19 13:56:00,40.8,38.1,29.83,South,189,3.0,14.0,87,0.00,,,0.19,557.0,meteohub,2013-02-19 18:56:00,
2013-02-19 14:02:00,41.0,37.9,29.83,SW,233,1.0,14.0,86,0.00,,,0.19,316.0,meteohub,2013-02-19 19:02:00,
2013-02-19 14:07:00,41.4,38.3,29.83,SSW,195,6.0,12.0,86,0.00,,,0.19,401.0,meteohub,2013-02-19 19:07:00,
2013-02-19 14:12:00,41.2,37.9,29.83,South,190,4.0,12.0,85,0.00,,,0.19,209.0,meteohub,2013-02-19 19:12:00,
2013-02-19 14:17:00,41.0,37.8,29.83,SW,235,5.0,13.0,85,0.00,,,0.19,172.0,meteohub,2013-02-19 19:17:00,
2013-02-19 14:22:00,41.0,37.8,29.82,SW,221,5.0,13.0,85,0.00,,,0.19,185.0,meteohub,2013-02-19 19:22:00,
2013-02-19 14:27:00,41.2,38.1,29.81,East,100,3.0,14.0,86,0.00,,,0.19,193.0,meteohub,2013-02-19 19:27:00,
2013-02-19 14:32:00,41.4,38.3,29.81,SSE,152,4.0,14.0,86,0.00,,,0.19,258.0,meteohub,2013-02-19 19:32:00,
2013-02-19 14:37:00,41.7,38.7,29.81,SE,142,6.0,12.0,86,0.00,,,0.19,255.0,meteohub,2013-02-19 19:37:00,
2013-02-19 14:42:00,41.9,38.8,29.80,SSW,195,4.0,10.0,86,0.00,,,0.19,213.0,meteohub,2013-02-19 19:42:00,
2013-02-19 14:47:00,42.1,38.8,29.80,SSW,203,4.0,10.0,85,0.00,,,0.19,199.0,meteohub,2013-02-19 19:47:00,
2013-02-19 14:52:00,42.3,39.0,29.79,SSE,154,3.0,14.0,85,0.00,,,0.19,202.0,meteohub,2013-02-19 19:52:00,
2013-02-19 14:57:00,42.6,39.4,29.78,SE,129,5.0,14.0,85,0.00,,,0.19,221.0,meteohub,2013-02-19 19:57:00,
2013-02-19 15:02:00,42.8,39.6,29.78,SSW,198,1.0,10.0,85,0.00,,,0.19,253.0,meteohub,2013-02-19 20:02:00,
2013-02-19 15:07:00,43.0,39.7,29.78,South,184,2.0,10.0,85,0.00,,,0.19,227.0,meteohub,2013-02-19 20:07:00,
2013-02-19 15:12:00,43.2,39.9,29.79,ENE,68,2.0,8.0,85,0.00,,,0.19,236.0,meteohub,2013-02-19 20:12:00,
2013-02-19 15:17:00,43.5,40.3,29.78,SSW,200,8.0,8.0,85,0.00,,,0.19,146.0,meteohub,2013-02-19 20:17:00,
2013-02-19 15:22:00,43.7,40.1,29.79,SSW,202,5.0,12.0,84,0.00,,,0.19,246.0,meteohub,2013-02-19 20:22:00,
2013-02-19 15:27:00,44.1,40.5,29.78,SW,233,0.0,12.0,84,0.00,,,0.19,165.0,meteohub,2013-02-19 20:27:00,
2013-02-19 15:32:00,44.6,41.2,29.78,South,171,3.0,12.0,85,0.00,,,0.19,399.0,meteohub,2013-02-19 20:32:00,
2013-02-19 15:37:00,45.3,41.4,29.78,SSW,204,7.0,10.0,83,0.00,,,0.19,383.0,meteohub,2013-02-19 20:37:00,
2013-02-19 15:42:00,45.9,41.5,29.78,South,185,7.0,10.0,82,0.00,,,0.19,357.0,meteohub,2013-02-19 20:42:00,
2013-02-19 15:47:00,46.4,42.1,29.77,NNE,12,2.0,10.0,82,0.00,,,0.19,188.0,meteohub,2013-02-19 20:47:00,
2013-02-19 15:52:00,47.1,42.3,29.77,SSE,168,7.0,10.0,80,0.00,,,0.19,223.0,meteohub,2013-02-19 20:52:00,
2013-02-19 15:57:00,47.5,42.6,29.77,South,175,2.0,15.0,80,0.00,,,0.19,116.0,meteohub,2013-02-19 20:57:00,
2013-02-19 16:02:00,47.7,42.4,29.77,South,171,8.0,15.0,79,0.00,,,0.19,93.0,meteohub,2013-02-19 21:02:00,
2013-02-19 16:07:00,48.0,42.4,29.77,South,182,5.0,15.0,78,0.00,,,0.19,149.0,meteohub,2013-02-19 21:07:00,
2013-02-19 16:12:00,48.2,42.6,29.76,SSE,158,9.0,12.0,78,0.00,,,0.19,60.0,meteohub,2013-02-19 21:12:00,
2013-02-19 16:17:00,48.4,42.8,29.76,South,178,5.0,12.0,78,0.00,,,0.19,56.0,meteohub,2013-02-19 21:17:00,
2013-02-19 16:22:00,48.6,42.6,29.77,South,178,4.0,11.0,77,0.00,,,0.19,49.0,meteohub,2013-02-19 21:22:00,
2013-02-19 16:27:00,48.6,42.3,29.77,ESE,105,3.0,11.0,76,0.00,,,0.19,51.0,meteohub,2013-02-19 21:27:00,
2013-02-19 16:32:00,48.6,42.3,29.77,SSW,192,2.0,11.0,76,0.00,,,0.19,53.0,meteohub,2013-02-19 21:32:00,
2013-02-19 16:37:00,48.6,42.3,29.77,SSW,205,1.0,8.0,76,0.00,,,0.19,44.0,meteohub,2013-02-19 21:37:00,
2013-02-19 16:42:00,48.6,43.0,29.78,SSW,205,1.0,5.0,78,0.00,,,0.19,30.0,meteohub,2013-02-19 21:42:00,
2013-02-19 16:47:00,48.4,42.8,29.78,NNE,24,1.0,4.0,78,0.00,,,0.19,12.0,meteohub,2013-02-19 21:47:00,
2013-02-19 16:52:00,48.0,42.4,29.79,WNW,282,3.0,5.0,78,0.00,,,0.19,0.0,meteohub,2013-02-19 21:52:00,
2013-02-19 16:57:00,47.1,41.9,29.79,SSW,210,2.0,6.0,79,0.00,,,0.19,5.0,meteohub,2013-02-19 21:57:00,
2013-02-19 17:02:00,46.0,40.8,29.79,West,262,2.0,12.0,79,0.08,,,0.27,26.0,meteohub,2013-02-19 22:02:00,
2013-02-19 17:07:00,45.7,41.2,29.79,SSW,201,3.0,13.0,81,0.08,,,0.27,44.0,meteohub,2013-02-19 22:07:00,
2013-02-19 17:12:00,45.5,41.2,29.80,SSW,207,1.0,13.0,82,0.08,,,0.27,32.0,meteohub,2013-02-19 22:12:00,
2013-02-19 17:17:00,45.0,41.4,29.80,SW,223,5.0,10.0,84,0.09,,,0.28,26.0,meteohub,2013-02-19 22:17:00,
2013-02-19 17:23:00,44.6,40.3,29.80,WSW,247,1.0,10.0,82,0.09,,,0.28,23.0,meteohub,2013-02-19 22:23:00,
2013-02-19 17:29:00,44.6,38.5,29.80,SSW,196,6.0,10.0,76,0.09,,,0.28,23.0,meteohub,2013-02-19 22:29:00,
2013-02-19 17:35:00,45.0,39.6,29.80,WNW,300,5.0,10.0,78,0.09,,,0.28,14.0,meteohub,2013-02-19 22:35:00,
2013-02-19 17:41:00,45.1,38.3,29.80,WNW,286,3.0,10.0,74,0.09,,,0.28,14.0,meteohub,2013-02-19 22:41:00,
2013-02-19 17:47:00,45.3,35.1,29.80,WNW,296,4.0,9.0,64,0.09,,,0.28,9.0,meteohub,2013-02-19 22:47:00,
2013-02-19 17:52:00,45.9,36.7,29.80,West,267,3.0,15.0,67,0.09,,,0.28,5.0,meteohub,2013-02-19 22:52:00,
2013-02-19 17:57:00,45.3,36.9,29.80,WNW,292,3.0,15.0,69,0.03,,,0.28,0.0,meteohub,2013-02-19 22:57:00,
2013-02-19 18:02:00,45.0,37.6,29.81,West,274,1.0,15.0,72,0.01,,,0.28,0.0,meteohub,2013-02-19 23:02:00,
2013-02-19 18:07:00,44.6,35.4,29.81,WNW,287,5.0,13.0,67,0.01,,,0.28,0.0,meteohub,2013-02-19 23:07:00,
2013-02-19 18:12:00,44.4,35.6,29.82,WSW,237,4.0,13.0,68,0.00,,,0.28,0.0,meteohub,2013-02-19 23:12:00,
2013-02-19 18:17:00,45.0,36.1,29.82,WNW,285,0.0,14.0,68,0.00,,,0.28,0.0,meteohub,2013-02-19 23:17:00,
2013-02-19 18:22:00,44.8,34.9,29.83,WNW,285,1.0,14.0,65,0.00,,,0.28,0.0,meteohub,2013-02-19 23:22:00,
2013-02-19 18:27:00,44.2,36.1,29.83,WNW,285,0.0,14.0,70,0.00,,,0.28,0.0,meteohub,2013-02-19 23:27:00,
2013-02-19 18:32:00,43.7,36.3,29.83,WNW,285,0.0,4.0,72,0.00,,,0.28,0.0,meteohub,2013-02-19 23:32:00,
2013-02-19 18:37:00,43.0,36.5,29.83,ENE,78,0.0,4.0,75,0.00,,,0.28,0.0,meteohub,2013-02-19 23:37:00,
2013-02-19 18:42:00,42.1,36.0,29.84,ENE,78,0.0,3.0,76,0.00,,,0.28,0.0,meteohub,2013-02-19 23:42:00,
2013-02-19 18:47:00,41.4,35.6,29.84,ENE,78,0.0,3.0,77,0.00,,,0.28,0.0,meteohub,2013-02-19 23:47:00,
2013-02-19 18:52:00,40.6,35.6,29.84,ENE,78,0.0,3.0,79,0.00,,,0.28,0.0,meteohub,2013-02-19 23:52:00,
2013-02-19 18:57:00,39.9,35.2,29.85,ENE,78,0.0,1.0,80,0.00,,,0.28,0.0,meteohub,2013-02-19 23:57:00,
2013-02-19 19:02:00,39.2,34.7,29.85,ENE,78,1.0,2.0,81,0.00,,,0.28,0.0,meteohub,2013-02-20 00:02:00,
2013-02-19 19:07:00,38.3,34.2,29.85,ENE,78,0.0,3.0,82,0.00,,,0.28,0.0,meteohub,2013-02-20 00:07:00,
2013-02-19 19:12:00,37.6,34.0,29.85,ENE,78,0.0,3.0,84,0.00,,,0.28,0.0,meteohub,2013-02-20 00:12:00,
2013-02-19 19:17:00,37.2,33.6,29.86,ENE,78,0.0,3.0,84,0.00,,,0.28,0.0,meteohub,2013-02-20 00:17:00,
2013-02-19 19:22:00,36.9,33.6,29.85,ENE,78,2.0,2.0,85,0.00,,,0.28,0.0,meteohub,2013-02-20 00:22:00,
2013-02-19 19:27:00,36.3,33.1,29.86,ENE,78,0.0,2.0,85,0.00,,,0.28,0.0,meteohub,2013-02-20 00:27:00,
2013-02-19 19:32:00,36.0,33.1,29.86,ENE,78,0.0,2.0,86,0.00,,,0.28,0.0,meteohub,2013-02-20 00:32:00,
2013-02-19 19:37:00,35.8,32.9,29.86,ENE,78,0.0,2.0,86,0.00,,,0.28,0.0,meteohub,2013-02-20 00:37:00,
2013-02-19 19:42:00,35.6,32.9,29.86,ENE,78,2.0,3.0,87,0.00,,,0.28,0.0,meteohub,2013-02-20 00:42:00,
2013-02-19 19:47:00,35.4,32.2,29.86,West,278,5.0,5.0,85,0.00,,,0.28,0.0,meteohub,2013-02-20 00:47:00,
2013-02-19 19:52:00,36.7,32.5,29.87,WNW,285,5.0,10.0,82,0.00,,,0.28,0.0,meteohub,2013-02-20 00:52:00,
2013-02-19 19:57:00,38.1,31.8,29.87,WNW,284,4.0,11.0,75,0.00,,,0.28,0.0,meteohub,2013-02-20 00:57:00,
2013-02-19 20:02:00,40.1,27.7,29.87,WSW,240,5.0,11.0,58,0.00,,,0.28,0.0,meteohub,2013-02-20 01:02:00,
2013-02-19 20:07:00,43.0,29.7,29.88,West,277,3.0,23.0,56,0.01,,,0.29,0.0,meteohub,2013-02-20 01:07:00,
2013-02-19 20:12:00,44.6,25.0,29.87,West,271,2.0,23.0,43,0.01,,,0.29,0.0,meteohub,2013-02-20 01:12:00,
2013-02-19 20:17:00,45.7,25.5,29.87,WNW,291,4.0,23.0,42,0.01,,,0.29,0.0,meteohub,2013-02-20 01:17:00,
2013-02-19 20:26:00,45.0,30.6,29.88,West,277,1.0,13.0,54,0.01,,,0.29,0.0,meteohub,2013-02-20 01:26:00,
2013-02-19 20:32:00,43.7,27.1,29.88,WNW,282,0.0,10.0,49,0.01,,,0.29,0.0,meteohub,2013-02-20 01:32:00,
2013-02-19 20:38:00,43.0,27.0,29.88,SW,217,4.0,5.0,50,0.01,,,0.29,0.0,meteohub,2013-02-20 01:38:00,
2013-02-19 20:44:00,42.3,27.1,29.88,WSW,246,0.0,7.0,52,0.01,,,0.29,0.0,meteohub,2013-02-20 01:44:00,
2013-02-19 20:50:00,41.7,28.4,29.88,WSW,252,0.0,7.0,56,0.01,,,0.29,0.0,meteohub,2013-02-20 01:50:00,
2013-02-19 20:56:00,41.2,29.5,29.88,West,281,0.0,5.0,60,0.01,,,0.29,0.0,meteohub,2013-02-20 01:56:00,
2013-02-19 21:02:00,40.3,29.1,29.89,West,281,0.0,3.0,61,0.00,,,0.29,0.0,meteohub,2013-02-20 02:02:00,
2013-02-19 21:07:00,39.6,29.8,29.89,West,281,0.0,4.0,65,0.00,,,0.29,0.0,meteohub,2013-02-20 02:07:00,
2013-02-19 21:12:00,38.8,27.0,29.89,WNW,284,5.0,5.0,59,0.00,,,0.29,0.0,meteohub,2013-02-20 02:12:00,
2013-02-19 21:17:00,39.6,26.8,29.89,WNW,291,4.0,7.0,57,0.00,,,0.29,0.0,meteohub,2013-02-20 02:17:00,
2013-02-19 21:22:00,40.8,26.8,29.89,WNW,286,0.0,7.0,54,0.00,,,0.29,0.0,meteohub,2013-02-20 02:22:00,
2013-02-19 21:27:00,40.6,27.0,29.90,WNW,286,0.0,7.0,55,0.00,,,0.29,0.0,meteohub,2013-02-20 02:27:00,
2013-02-19 21:32:00,40.3,27.9,29.90,WNW,286,0.0,7.0,58,0.00,,,0.29,0.0,meteohub,2013-02-20 02:32:00,
2013-02-19 21:37:00,39.9,27.9,29.90,WNW,286,0.0,2.0,59,0.00,,,0.29,0.0,meteohub,2013-02-20 02:37:00,
2013-02-19 21:42:00,39.4,28.6,29.90,South,172,1.0,2.0,62,0.00,,,0.29,0.0,meteohub,2013-02-20 02:42:00,
2013-02-19 21:47:00,38.7,28.2,29.90,WSW,257,4.0,4.0,63,0.00,,,0.29,0.0,meteohub,2013-02-20 02:47:00,
2013-02-19 21:52:00,39.2,25.7,29.91,NNW,346,2.0,7.0,55,0.00,,,0.29,0.0,meteohub,2013-02-20 02:52:00,
2013-02-19 21:57:00,39.9,24.1,29.90,WSW,244,5.0,7.0,50,0.00,,,0.29,0.0,meteohub,2013-02-20 02:57:00,
2013-02-19 22:02:00,41.0,23.7,29.90,WSW,257,2.0,14.0,47,0.00,,,0.29,0.0,meteohub,2013-02-20 03:02:00,
2013-02-19 22:07:00,41.7,21.9,29.90,SSW,213,9.0,14.0,42,0.00,,,0.29,0.0,meteohub,2013-02-20 03:07:00,
2013-02-19 22:12:00,42.8,20.1,29.91,WNW,282,3.0,15.0,37,0.00,,,0.29,0.0,meteohub,2013-02-20 03:12:00,
2013-02-19 22:17:00,43.3,21.7,29.91,West,279,6.0,19.0,39,0.00,,,0.29,0.0,meteohub,2013-02-20 03:17:00,
2013-02-19 22:22:00,43.5,20.1,29.91,WNW,299,5.0,20.0,36,0.00,,,0.29,0.0,meteohub,2013-02-20 03:22:00,
2013-02-19 22:27:00,43.5,20.1,29.91,West,281,4.0,20.0,36,0.00,,,0.29,0.0,meteohub,2013-02-20 03:27:00,
2013-02-19 22:32:00,43.0,19.0,29.91,North,355,1.0,20.0,35,0.00,,,0.29,0.0,meteohub,2013-02-20 03:32:00,
2013-02-19 22:37:00,42.8,20.1,29.91,WNW,296,0.0,14.0,37,0.00,,,0.29,0.0,meteohub,2013-02-20 03:37:00,
2013-02-19 22:42:00,42.6,21.0,29.91,West,277,2.0,6.0,39,0.00,,,0.29,0.0,meteohub,2013-02-20 03:42:00,
2013-02-19 22:47:00,42.3,19.6,29.91,NNE,28,4.0,9.0,37,0.00,,,0.29,0.0,meteohub,2013-02-20 03:47:00,
2013-02-19 22:52:00,42.1,18.9,29.92,West,273,6.0,14.0,36,0.00,,,0.29,0.0,meteohub,2013-02-20 03:52:00,
2013-02-19 22:57:00,42.4,19.2,29.92,WNW,285,3.0,15.0,36,0.00,,,0.29,0.0,meteohub,2013-02-20 03:57:00,
2013-02-19 23:02:00,42.3,20.1,29.92,West,262,1.0,15.0,38,0.00,,,0.29,0.0,meteohub,2013-02-20 04:02:00,
2013-02-19 23:07:00,42.1,20.7,29.92,West,280,1.0,13.0,39,0.00,,,0.29,0.0,meteohub,2013-02-20 04:07:00,
2013-02-19 23:12:00,41.9,19.9,29.92,SSW,213,0.0,10.0,38,0.00,,,0.29,0.0,meteohub,2013-02-20 04:12:00,
2013-02-19 23:17:00,41.4,20.5,29.92,West,274,0.0,10.0,40,0.00,,,0.29,0.0,meteohub,2013-02-20 04:17:00,
2013-02-19 23:22:00,41.0,19.0,29.92,West,274,1.0,10.0,38,0.00,,,0.29,0.0,meteohub,2013-02-20 04:22:00,
2013-02-19 23:27:00,40.5,22.8,29.92,West,268,4.0,7.0,46,0.00,,,0.29,0.0,meteohub,2013-02-20 04:27:00,
2013-02-19 23:32:00,39.7,21.2,29.92,West,277,3.0,5.0,44,0.00,,,0.29,0.0,meteohub,2013-02-20 04:32:00,
2013-02-19 23:37:00,39.4,20.3,29.92,West,277,2.0,5.0,43,0.00,,,0.29,0.0,meteohub,2013-02-20 04:37:00,
2013-02-19 23:42:00,39.0,21.4,29.92,WNW,282,0.0,5.0,46,0.00,,,0.29,0.0,meteohub,2013-02-20 04:42:00,
2013-02-19 23:47:00,38.5,21.0,29.92,WNW,290,1.0,4.0,46,0.00,,,0.29,0.0,meteohub,2013-02-20 04:47:00,
2013-02-19 23:52:00,38.3,20.3,29.92,WNW,290,0.0,6.0,45,0.00,,,0.29,0.0,meteohub,2013-02-20 04:52:00,
2013-02-19 23:57:00,37.8,22.6,29.92,WNW,290,0.0,6.0,51,0.00,,,0.29,0.0,meteohub,2013-02-20 04:57:00,